Content
SEND FEEDBACK

Daily
Averages
Monthly
Summary
United States of America

NORFOLK, VIRGINIA


Home > North America > United States > Virginia
Elevation: 14 feet     Latitude: 36 54N     Longitude: 076 12W

WEATHER
 
SELECT A DAY
Number of Records: 95,080;   Date Range: 1/1/95 - 12/17/14
 
SHARE

PRINT THIS DATA

[ ← Previous Day ]
WEATHER ALMANAC - JANUARY 31, 2013
[ Next Day → ]
[ °C ]   °F
Weather ElementAverageHighLow
Temperature52.5 °F69.1 °F (1:51 am)39 °F (10:51 pm)
Dewpoint34.7 °F60.8 °F (2:44 am)16 °F (5:51 pm)
Humidity54.6 %90 % (2:51 am)28 % (3:51 pm)
Barometer29.65 in29.99 in (11:51 pm)29.34 in (1:51 am)
Wind Speed17.6 mph43.7 mph (2:44 am)
Wind Gust61 mph (2:44 am)
Weather ElementAverage
Visibility8.1 mi
Wind DirectionSW (223.9 °)

Weather ElementTotal
Precipitation0.71 in
Heating Degree Days11 (Base 65)
Growing Degree Days4.1 (Base 50)
Averaged from 28 records on January 31, 2013
WEATHER CONDITIONS BREAKOUT
WIND DIRECTION BREAKOUT
WEATHER BY HOUR - JANUARY 31, 2013
[ °C ]   °F
Local TimeTemperatureDewpointHumidityBarometerVisibilityWind DirectionWind SpeedGust SpeedPrecipitationEventsConditions
1:51 AM69.1 °F60.1 °F73 %29.34 in10.0 miSouth (180°)27.6 mph59.8 mph0.00 inOvercast
2:44 AM66.2 °F60.8 °F83 %29.38 in1.5 miWSW (240°)43.7 mph61.0 mph0.00 inRainRain
2:51 AM62.1 °F59.0 °F90 %29.39 in0.8 miWSW (240°)25.3 mph61.0 mph0.13 inRainHeavy Rain
2:54 AM62.6 °F59.0 °F88 %29.38 in1.2 miWSW (240°)19.6 mph46.0 mph0.02 inRainRain
3:03 AM62.6 °F59.0 °F88 %29.41 in2.5 miWSW (250°)27.6 mph41.4 mph0.10 inRainRain
3:10 AM60.8 °F57.2 °F88 %29.41 in3.0 miWSW (250°)23.0 mph46.0 mph0.10 inRainRain
3:20 AM57.2 °F53.6 °F88 %29.41 in3.0 miWSW (250°)23.0 mph42.6 mph0.15 inRainRain
3:51 AM57.0 °F51.1 °F81 %29.38 in5.0 miSW (230°)24.2 mph41.4 mph0.21 inRainLight Rain
4:51 AM57.0 °F48.0 °F72 %29.41 in10.0 miSW (230°)28.8 mph38.0 mph0.00 inOvercast
5:51 AM55.9 °F46.0 °F69 %29.44 in10.0 miWSW (240°)23.0 mph38.0 mphScattered Clouds
6:51 AM55.0 °F43.0 °F64 %29.49 in10.0 miWSW (240°)25.3 mph34.5 mphOvercast
7:51 AM51.1 °F39.0 °F63 %29.57 in10.0 miWest (260°)13.8 mph28.8 mphOvercast
8:51 AM52.0 °F34.0 °F50 %29.62 in10.0 miWest (260°)18.4 mph29.9 mphClear
9:51 AM51.1 °F30.0 °F44 %29.66 in10.0 miWest (270°)13.8 mph27.6 mphPartly Cloudy
10:51 AM50.0 °F25.0 °F38 %29.70 in10.0 miWest (270°)12.7 mph24.2 mphClear
11:51 AM50.0 °F23.0 °F35 %29.72 in10.0 miWest (270°)18.4 mph28.8 mphClear
12:51 PM52.0 °F21.9 °F31 %29.72 in10.0 miWest (260°)17.3 mph31.1 mphClear
1:51 PM51.1 °F19.9 °F29 %29.72 in10.0 miWest (260°)11.5 mph26.5 mphClear
2:51 PM51.1 °F19.9 °F29 %29.75 in10.0 miWest (270°)10.4 mph27.6 mphClear
3:51 PM50.0 °F18.0 °F28 %29.78 in10.0 miWest (260°)13.8 mph23.0 mphClear
4:51 PM48.9 °F17.1 °F28 %29.82 in10.0 miWest (270°)13.8 mph25.3 mphClear
5:51 PM46.0 °F16.0 °F30 %29.86 in10.0 miWest (270°)10.4 mph32.2 mphClear
6:51 PM45.0 °F18.0 °F34 %29.90 in10.0 miWest (260°)12.7 mph19.6 mphClear
7:51 PM44.1 °F19.0 °F37 %29.93 in10.0 miVariable6.9 mph17.3 mphClear
8:51 PM42.1 °F18.0 °F38 %29.95 in10.0 miVariable6.9 mphClear
9:51 PM39.9 °F19.0 °F43 %29.96 in10.0 miWSW (250°)6.9 mphClear
10:51 PM39.0 °F19.0 °F45 %29.97 in10.0 miWSW (250°)8.1 mphClear
11:51 PM39.9 °F19.0 °F43 %29.99 in10.0 miVariable6.9 mphClear
Hourly data recorded from KORF, located miles away from Norfolk, Virginia







STORIES FROM OUR PARTNERS